Weather History for Annette Island, AK

Change the Weather History Date:

Wednesday, April 16, 2014

  Actual Average Record
Temperature  
Mean Temperature 46 °F 44 °F  
Max Temperature 52 °F 50 °F 69 °F (1990)
Min Temperature 39 °F 38 °F 30 °F (2000)
Degree Days  
Heating Degree Days 19 21  
Month to date heating degree days 360 351  
Since 1 July heating degree days 5716 5673  
Cooling Degree Days 0    
Month to date cooling degree days 0  
Year to date cooling degree days 0  
Moisture  
Dew Point 39 °F    
Average Humidity 83    
Maximum Humidity 97    
Minimum Humidity 46    
Precipitation  
Precipitation 0.01 in 0.22 in 1.42 in (1973)
Month to date precipitation 8.19 3.88  
Year to date precipitation 28.43 29.97  
Snow  
Snow 0.00 in 0.00 in 0.30 in (1972)
Month to date snowfall 0.0 1.1  
Since 1 July snowfall 25.4 34.5  
Snow Depth 0.00 in    
Sea Level Pressure  
Sea Level Pressure 29.69 in    
Wind  
Wind Speed 7 mph (ESE)    
Max Wind Speed 14 mph    
Max Gust Speed 18 mph    
Visibility 9 miles    
Events Rain    
T = Trace of Precipitation, MM = Missing Value Source: NWS Daily Summary

Daily Weather History Graph

Daily Weather History Graph

Search for Another Location

Airport:

Trip Planner

Search our weather history database for the weather conditions in past years. The results will help you decide how hot, cold, wet, or windy it might be!

Date:

Astronomy

Apr. 16, 2014 Rise Set
Actual Time 5:40 AM AKDT 7:53 PM AKDT
Civil Twilight 5:00 AM AKDT 8:32 PM AKDT
Nautical Twilight 4:11 AM AKDT 9:22 PM AKDT
Astronomical Twilight 3:11 AM AKDT 10:23 PM AKDT
Moon 10:00 PM AKDT (4/16) 6:21 AM AKDT (4/16)
Length of Visible Light 15h 31m
Length of Day
14h 13m
Full, 97% of the Moon is Illuminated
Apr 16
Full
Apr 21
Last Quarter
Apr 28
New
May 6
First Quarter
May 14
Full

Hourly Weather History & Observations

Time (AKDT) Temp. Windchill Dew Point Humidity Pressure Visibility Wind Dir Wind Speed Gust Speed Precip Events Conditions
12:53 AM 43.0 °F 40.3 °F 37.9 °F 82% 29.94 in 10.0 mi ESE 4.6 mph - N/A   Overcast
1:53 AM 44.1 °F 40.8 °F 37.0 °F 76% 29.93 in 10.0 mi East 5.8 mph - N/A   Overcast
2:05 AM 43.0 °F 39.5 °F 37.0 °F 80% 29.92 in 10.0 mi East 5.8 mph - N/A   Overcast
2:53 AM 44.1 °F 40.8 °F 37.0 °F 76% 29.92 in 10.0 mi ESE 5.8 mph - N/A   Overcast
3:53 AM 42.1 °F - 37.0 °F 82% 29.91 in 10.0 mi Calm Calm - N/A   Overcast
4:53 AM 39.9 °F - 37.9 °F 93% 29.89 in 10.0 mi Calm Calm - N/A   Mostly Cloudy
5:53 AM 39.9 °F - 37.9 °F 93% 29.88 in 10.0 mi Calm Calm - N/A   Overcast
6:53 AM 42.1 °F 40.2 °F 37.0 °F 82% 29.86 in 10.0 mi ENE 3.5 mph - N/A   Overcast
7:53 AM 43.0 °F - 39.9 °F 89% 29.83 in 10.0 mi Calm Calm - N/A   Overcast
8:53 AM 46.9 °F - 37.0 °F 68% 29.82 in 10.0 mi Calm Calm - N/A   Overcast
10:53 AM 51.1 °F - 30.9 °F 46% 29.78 in 10.0 mi ESE 8.1 mph - N/A   Mostly Cloudy
11:53 AM 50.0 °F - 30.9 °F 48% 29.77 in 10.0 mi SE 9.2 mph - N/A   Overcast
12:53 PM 48.0 °F - 36.0 °F 63% 29.75 in 10.0 mi SE 10.4 mph - 0.00 in Rain Light Rain
1:53 PM 46.0 °F 43.1 °F 39.0 °F 76% 29.73 in 10.0 mi East 5.8 mph - 0.01 in Rain Light Rain
2:53 PM 46.0 °F 43.9 °F 41.0 °F 83% 29.69 in 10.0 mi ESE 4.6 mph - 0.00 in Rain Light Rain
3:53 PM 45.0 °F 40.1 °F 39.0 °F 80% 29.67 in 10.0 mi ESE 9.2 mph 18.4 mph 0.01 in Rain Light Rain
4:06 PM 45.0 °F 41.2 °F 41.0 °F 86% 29.65 in 9.0 mi ESE 6.9 mph - 0.01 in Rain Light Rain
4:14 PM 45.0 °F 40.1 °F 41.0 °F 86% 29.65 in 10.0 mi ESE 9.2 mph 17.3 mph 0.01 in Rain Light Rain
4:53 PM 44.1 °F 39.0 °F 39.9 °F 85% 29.63 in 8.0 mi ESE 9.2 mph 17.3 mph 0.04 in Rain Light Rain
5:26 PM 44.1 °F 39.5 °F 41.0 °F 89% 29.61 in 9.0 mi ESE 8.1 mph - 0.02 in Rain Light Rain
5:51 PM 44.6 °F 39.7 °F 41.0 °F 87% 29.60 in 8.0 mi ESE 9.2 mph - 0.04 in Rain Light Rain
5:53 PM 44.1 °F 39.5 °F 41.0 °F 89% 29.60 in 8.0 mi ESE 8.1 mph - 0.04 in Rain Light Rain
6:53 PM 44.1 °F 37.1 °F 39.9 °F 85% 29.57 in 7.0 mi East 15.0 mph 24.2 mph 0.07 in Rain Light Rain
7:53 PM 44.1 °F 37.1 °F 39.9 °F 85% 29.54 in 7.0 mi ESE 15.0 mph 21.9 mph 0.07 in Rain Light Rain
8:45 PM 44.1 °F 37.4 °F 41.0 °F 89% 29.53 in 7.0 mi ESE 13.8 mph 24.2 mph 0.07 in Rain Rain
8:53 PM 44.1 °F 36.8 °F 41.0 °F 89% 29.53 in 7.0 mi ESE 16.1 mph 26.5 mph 0.09 in Rain Rain
9:01 PM 44.1 °F 37.4 °F 41.0 °F 89% 29.53 in 7.0 mi ESE 13.8 mph 26.5 mph 0.01 in Rain Light Rain
9:41 PM 44.1 °F 36.5 °F 41.0 °F 89% 29.52 in 8.0 mi ESE 17.3 mph 26.5 mph 0.08 in Rain Light Rain
9:53 PM 44.1 °F 36.5 °F 41.0 °F 89% 29.52 in 7.0 mi ESE 17.3 mph 25.3 mph 0.10 in Rain Rain
10:53 PM 43.0 °F 34.8 °F 42.1 °F 97% 29.51 in 8.0 mi SE 18.4 mph 27.6 mph 0.07 in Rain Light Rain
11:12 PM 43.0 °F 35.4 °F 42.1 °F 97% 29.50 in 9.0 mi ESE 16.1 mph 24.2 mph 0.03 in Rain Light Rain
11:31 PM 43.0 °F 37.7 °F 42.1 °F 97% 29.49 in 10.0 mi ESE 9.2 mph - 0.04 in Rain Light Rain
11:53 PM 43.0 °F 37.2 °F 42.1 °F 97% 29.48 in 9.0 mi ESE 10.4 mph - 0.06 in Rain Light Rain